MAU844 FACT-FIMP

Flight info

Callsign MAU844
Flight time N/A
Altitude 39000
Route OKTED1B OKTED UQ12 DUNSA DCT EVIDO UA402 ETGUN/N0479F410 UA402 GETIR DCT SDG DCT ETKIS DCT FF
Aircraft A359/H-SDE2E3GHIJ1J3J4J5LM1ORWXY/LB1D1

Departure

Time 2026-05-06 10:51
Airport Cape Town International Airport (FACT)

Arrival

Time N/A
Airport Sir Seewoosagur Ramgoolam International Airport (FIMP)
Time Latitude Longitude Altitude Speed Heading
2026-05-06 10:36 -33.96704 18.59744 173 ft 0 kts 255°
2026-05-06 10:44 -33.96707 18.59730 173 ft 4 kts 255°
2026-05-06 10:44 -33.96700 18.59761 173 ft 4 kts 255°
2026-05-06 10:44 -33.96694 18.59793 173 ft 4 kts 255°
2026-05-06 10:44 -33.96690 18.59820 173 ft 4 kts 288°
2026-05-06 10:45 -33.96705 18.59838 173 ft 4 kts 345°
2026-05-06 10:45 -33.96723 18.59844 173 ft 0 kts 345°
2026-05-06 10:45 -33.96699 18.59836 173 ft 0 kts 345°
2026-05-06 10:45 -33.96698 18.59836 173 ft 0 kts 345°
2026-05-06 10:48 -33.96657 18.59823 173 ft 11 kts 346°
2026-05-06 10:48 -33.96575 18.59798 173 ft 13 kts 345°
2026-05-06 10:48 -33.96483 18.59774 174 ft 14 kts 349°
2026-05-06 10:48 -33.96379 18.59749 174 ft 16 kts 348°
2026-05-06 10:49 -33.96260 18.59727 174 ft 17 kts 358°
2026-05-06 10:49 -33.96165 18.59802 174 ft 17 kts 44°
2026-05-06 10:49 -33.96078 18.59907 174 ft 19 kts 45°
2026-05-06 10:49 -33.96082 18.60024 172 ft 14 kts 152°
2026-05-06 10:50 -33.96160 18.60053 172 ft 0 kts 164°
2026-05-06 10:50 -33.96210 18.60070 171 ft 31 kts 164°
2026-05-06 10:50 -33.96638 18.60207 178 ft 94 kts 165°
2026-05-06 10:51 -33.97458 18.60475 211 ft 144 kts 165°
2026-05-06 10:51 -33.98434 18.60766 639 ft 139 kts 162°
2026-05-06 10:51 -33.99024 18.60955 635 ft 121 kts 162°
2026-05-06 10:51 -34.00013 18.61279 984 ft 144 kts 162°
2026-05-06 10:52 -34.00945 18.61574 1778 ft 131 kts 162°
2026-05-06 10:52 -34.01871 18.61856 2179 ft 147 kts 161°
2026-05-06 10:52 -34.02826 18.62489 2391 ft 170 kts 137°
2026-05-06 10:52 -34.03511 18.63714 2845 ft 181 kts 118°
2026-05-06 10:53 -34.03981 18.65212 3202 ft 205 kts 110°
2026-05-06 10:53 -34.04350 18.66981 3582 ft 228 kts 106°
2026-05-06 10:53 -34.04673 18.68905 4232 ft 238 kts 105°
2026-05-06 10:53 -34.05000 18.70892 4958 ft 245 kts 106°
2026-05-06 10:54 -34.05359 18.72933 5671 ft 251 kts 107°
2026-05-06 10:54 -34.05744 18.74996 6448 ft 254 kts 108°
2026-05-06 10:54 -34.06151 18.77075 7256 ft 256 kts 108°
2026-05-06 10:54 -34.06577 18.79185 8039 ft 261 kts 108°
2026-05-06 10:55 -34.07018 18.81335 8833 ft 266 kts 108°
2026-05-06 10:55 -34.07467 18.83514 9656 ft 270 kts 109°
2026-05-06 10:55 -34.07926 18.85739 10378 ft 278 kts 109°
2026-05-06 10:55 -34.08413 18.88083 10712 ft 299 kts 109°
2026-05-06 10:56 -34.08935 18.90598 11044 ft 318 kts 108°
2026-05-06 10:56 -34.09481 18.93251 11530 ft 331 kts 108°
2026-05-06 10:56 -34.10031 18.95973 12240 ft 336 kts 108°
2026-05-06 10:56 -34.10581 18.98734 12956 ft 341 kts 107°
2026-05-06 10:57 -34.11142 19.01535 13731 ft 345 kts 107°
2026-05-06 10:57 -34.11713 19.04357 14418 ft 349 kts 107°
2026-05-06 10:57 -34.12292 19.07220 15065 ft 353 kts 107°
2026-05-06 10:57 -34.12873 19.10109 15733 ft 352 kts 107°
2026-05-06 10:58 -34.13428 19.12913 16138 ft 340 kts 107°
2026-05-06 10:58 -34.13992 19.15726 16322 ft 352 kts 107°
2026-05-06 10:58 -34.14588 19.18652 16685 ft 364 kts 107°
2026-05-06 10:58 -34.15193 19.21641 17281 ft 368 kts 107°
2026-05-06 10:59 -34.15802 19.24663 17962 ft 373 kts 107°
2026-05-06 10:59 -34.16417 19.27722 18579 ft 377 kts 107°
2026-05-06 10:59 -34.17038 19.30816 19091 ft 381 kts 106°
2026-05-06 10:59 -34.17663 19.33947 19641 ft 386 kts 106°
2026-05-06 11:00 -34.18292 19.37105 20214 ft 389 kts 106°
2026-05-06 11:00 -34.18925 19.40286 20911 ft 389 kts 105°
2026-05-06 11:00 -34.19560 19.43480 21492 ft 394 kts 105°
2026-05-06 11:00 -34.20204 19.46719 22007 ft 399 kts 105°
2026-05-06 11:01 -34.20849 19.49980 22699 ft 400 kts 105°
2026-05-06 11:01 -34.21459 19.53270 23266 ft 405 kts 102°
2026-05-06 11:01 -34.21755 19.56682 23699 ft 413 kts 92°
2026-05-06 11:01 -34.21708 19.60164 24226 ft 416 kts 89°
2026-05-06 11:02 -34.21545 19.63656 24732 ft 419 kts 87°
2026-05-06 11:02 -34.21318 19.67181 25175 ft 422 kts 86°
2026-05-06 11:02 -34.21061 19.70719 25713 ft 424 kts 86°
2026-05-06 11:02 -34.20885 19.73078 26009 ft 426 kts 85°
2026-05-06 11:03 -34.20620 19.76655 26459 ft 429 kts 86°
2026-05-06 11:03 -34.20358 19.80258 26977 ft 432 kts 86°
2026-05-06 11:03 -34.20100 19.83873 27553 ft 431 kts 86°
2026-05-06 11:03 -34.19848 19.87468 28258 ft 428 kts 86°
2026-05-06 11:04 -34.19597 19.91068 28649 ft 433 kts 86°
2026-05-06 11:04 -34.19344 19.94702 29121 ft 434 kts 86°
2026-05-06 11:04 -34.19091 19.98337 29606 ft 437 kts 85°
2026-05-06 11:04 -34.18833 20.02014 29993 ft 440 kts 85°
2026-05-06 11:05 -34.18573 20.05704 30455 ft 442 kts 85°
2026-05-06 11:05 -34.18309 20.09415 30720 ft 447 kts 85°
2026-05-06 11:05 -34.18042 20.13163 31143 ft 447 kts 85°
2026-05-06 11:05 -34.17675 20.16899 31547 ft 449 kts 81°
2026-05-06 11:06 -34.16903 20.20554 31905 ft 452 kts 72°
2026-05-06 11:06 -34.15769 20.24104 32181 ft 456 kts 69°
2026-05-06 11:06 -34.14517 20.27638 32478 ft 458 kts 68°
2026-05-06 11:06 -34.13212 20.31152 32747 ft 461 kts 67°
2026-05-06 11:07 -34.11874 20.34681 33042 ft 463 kts 66°
2026-05-06 11:07 -34.10526 20.38226 33311 ft 466 kts 66°
2026-05-06 11:07 -34.09176 20.41784 33629 ft 467 kts 66°
2026-05-06 11:07 -34.07826 20.45358 33835 ft 470 kts 66°
2026-05-06 11:08 -34.06474 20.48951 34138 ft 471 kts 67°
2026-05-06 11:08 -34.03742 20.56229 34402 ft 478 kts 67°
2026-05-06 11:08 -34.02369 20.59886 34660 ft 478 kts 68°
2026-05-06 11:09 -34.00996 20.63537 34901 ft 479 kts 67°
2026-05-06 11:09 -33.99618 20.67195 35149 ft 479 kts 67°
2026-05-06 11:09 -33.98240 20.70855 35377 ft 481 kts 68°
2026-05-06 11:09 -33.96858 20.74525 35617 ft 481 kts 68°
2026-05-06 11:10 -33.95471 20.78196 35802 ft 483 kts 68°
2026-05-06 11:10 -33.94077 20.81876 36115 ft 482 kts 68°
2026-05-06 11:10 -33.92687 20.85534 36420 ft 481 kts 69°
2026-05-06 11:10 -33.91295 20.89201 36545 ft 483 kts 69°
2026-05-06 11:11 -33.89898 20.92883 36679 ft 485 kts 69°
2026-05-06 11:11 -33.88496 20.96580 36849 ft 486 kts 69°
2026-05-06 11:11 -33.87091 21.00287 36998 ft 487 kts 69°
2026-05-06 11:11 -33.85687 21.03997 37190 ft 489 kts 68°